STARLINK-2389, 47808

Orbit data source: Space-Track

STARLINK-2389, 47808 is a payload satellite owned by SpaceX/Seattle (US) in LEO that was launched on Thu, 11 Mar 2021 UTC via an FALCON 9 launch vehicle from the Air Force Eastern Test Range (AFETR). Payload-class satellites include a variety of spacecraft equipped with specific instruments for various scientific and technological missions. These include communications satellites like Starlink; space stations such as the ISS; scientific satellites like the Hubble; Earth observation satellites from companies like Planet Labs, Umbra, and HawkEye 360; GPS; miniature CubeSats for education and research; and military/defense satellites.

Loading next visibility...
Identifier
47808, 2021-018X
Orbit
LEO
Country
Flag of USUS
Related business
Manufacturer
SpaceX/Seattle
Mission
Operational Commercial Communications
Bus & Motor
STARLINK, Unknown motor
Mass
260 kg wet, ~248 kg dry
Launch date (UTC)
2021-03-11 (5 years ago)
Launch vehicle
FALCON 9
Launch site
Air Force Eastern Test Range (AFETR)
Object type
Payload
Rocket body
Debris
Shape & HBR
Box + 1 Pan, 10.1 m
Radar Cross Section
13.562 m², Large (>1 m²)

Expand to show TLE details & history
Last TLE update: 10 hours ago

TLE from 10 hours ago
0 STARLINK-2389
1 47808U 21018X   26035.39692914  .00003927  00000-0  28219-3 0  9994
2 47808  53.0541  36.0749 0001371  89.0460 271.0686 15.06425232271702
Epoch: 2026-02-04T09:31Z
TLE epoch observation values (Epoch: 2026-02-04T09:31:34.677Z)
Latitude
-0.00004°
Longitude
118.61628°
Altitude
547.996 km
Speed
7.589 km/s
True Right ascension
02h 24m 17s
True Declination
0° 00' 00"
Sunlit
Object was in daylight at epoch
Visualization orbit readout
Latitude
Unknown
Longitude
Unknown
Altitude
Unknown
Speed
Unknown
Apparent Right ascension
Unknown
Apparent Declination
Unknown
Sunlit
N/A
Visualization observer readout
Local Sidereal Time
21:25:11
Azimuth
Unknown
Elevation
Unknown
Doppler factor
Unknown
Orbital elements
Apogee altitude
548.355 km
Perigee altitude
546.456 km
Semi-major axis
6,925.542 km
Eccentricity
0.00014
Inclination
53.0541°
RAAN
36.0749°
Arg. of periapsis
89.046°
True anomaly
271.05289°
Mean anomaly
271.0686°
Eccentric anomaly
271.06075°
Mean motion
3.76585 °/min
Orbital period
95.6 mins
BSTAR
0.00028219
Loading maneuver chart data...
Computing Atmospheric mass density...
Loading historical data...
Loading historical data...
Loading historical data...
Loading historical data...
Loading historical data...
Loading historical data...
Loading historical data...

Documentation

Showing up to 5 results
|